This is the latest recevied weather packets stored in our database for station/object KB1JLI. If no packets are shown the sender has not sent any weather packets the latest 10 day(s).
| Time | Temp. | Humidity | Pressure | Rain* | Wind** | Luminosity | Snow |
|---|---|---|---|---|---|---|---|
| 1777571226 | 10° C | 97% | 1007 hPa | 0 mm | - | 65 W/m² | - |
| 1777570010 | 9.44° C | 98% | 1006.9 hPa | 0 mm | - | 65 W/m² | - |
| 1777567881 | 9.44° C | 98% | 1007.2 hPa | 1.27 mm | - | 112 W/m² | - |
| 1777567576 | 9.44° C | 98% | 1007.3 hPa | 0 mm | - | 113 W/m² | - |
| 1777565456 | 9.44° C | 98% | 1007 hPa | 1.78 mm | - | 122 W/m² | - |
| 1777565152 | 9.44° C | 98% | 1007 hPa | 0 mm | - | 92 W/m² | - |
| 1777563633 | 8.89° C | 97% | 1007.2 hPa | 1.78 mm | - | 90 W/m² | - |
| 1777563332 | 8.89° C | 97% | 1007.2 hPa | 1.78 mm | - | 114 W/m² | - |
| 1777563029 | 8.89° C | 97% | 1007.5 hPa | 1.78 mm | - | 90 W/m² | - |
| 1777562724 | 8.89° C | 97% | 1007.5 hPa | 1.27 mm | - | 95 W/m² | - |
| 1777562418 | 8.89° C | 97% | 1007.6 hPa | 3.05 mm | - | 79 W/m² | - |
| 1777562115 | 8.89° C | 98% | 1007.7 hPa | 1.78 mm | - | 72 W/m² | - |
| 1777561509 | 8.89° C | 98% | 1007.8 hPa | 0 mm | - | 85 W/m² | - |
| 1777560596 | 8.89° C | 98% | 1007.4 hPa | 0 mm | - | 70 W/m² | - |
| 1777558785 | 8.33° C | 98% | 1007.9 hPa | 1.78 mm | - | 101 W/m² | - |
| 1777558481 | 8.33° C | 98% | 1008 hPa | 1.27 mm | - | 90 W/m² | - |
| 1777558177 | 8.33° C | 98% | 1007.9 hPa | 3.05 mm | - | 93 W/m² | - |
| 1777557873 | 8.33° C | 98% | 1008.1 hPa | 3.05 mm | - | 86 W/m² | - |
| 1777557267 | 7.78° C | 98% | 1008.1 hPa | 1.78 mm | - | 68 W/m² | - |
| 1777556963 | 8.33° C | 99% | 1008.2 hPa | 0 mm | - | 69 W/m² | - |
| 1777556659 | 8.33° C | 99% | 1008.5 hPa | 0 mm | - | 46 W/m² | - |
| 1777555138 | 7.78° C | 99% | 1007.9 hPa | 0 mm | - | 95 W/m² | - |
| 1777554532 | 7.78° C | 99% | 1008.3 hPa | 0 mm | - | 117 W/m² | - |
| 1777554229 | 7.78° C | 99% | 1008.2 hPa | 0 mm | - | 100 W/m² | - |
| 1777553926 | 7.78° C | 99% | 1008.3 hPa | 0 mm | - | 105 W/m² | - |
* Rain latest hour (hover to see other rain measurements)
** Current wind speed in m/s (hover to see current wind gust speed)